Regional Weather Roundup
Issued by NWS Sioux Falls, SD

Home | Current Version | Previous Version | Graphics & Text | Print | Product List | Glossary Off
Versions: 1 2 3 4 5 6 7 8 9 10 11 12 13 14 15 16 17 18 19 20 21 22 23 24 25 26 27 28 29 30 31 32 33 34 35 36 37 38 39 40 41 42 43 44 45 46 47 48 49 50

000
ASUS43 KFSD 231902
RWRFSD

WEATHER ROUNDUP FOR SE SOUTH DAKOTA/SW MINNESOTA/NW IOWA
NATIONAL WEATHER SERVICE SIOUX FALLS SD
200 PM CDT TUE SEP 23 2014

NOTE: "FAIR" INDICATES FEW OR NO CLOUDS BELOW 12,000 FEET WITH NO
SIGNIFICANT WEATHER AND OR OBSTRUCTIONS TO VISIBILITY.


SDZ038>040-050-052>070-232000-
SOUTHEAST SOUTH DAKOTA

CITY           SKY/WX    TMP DP  RH WIND       PRES   REMARKS
CHAMBERLAIN    CLOUDY    63  56  79 SE13      29.95S
HURON          CLOUDY    58  55  90 SE13G26   30.01F
MADISON        LGT RAIN  57  57 100 S12G21    30.08F
MITCHELL       CLOUDY    60  56  86 SE20G26   30.03F
SIOUX FALLS    LGT RAIN  61  56  83 S12       30.09F
WINNER         MOCLDY    69  57  65 S16G25    29.92F
YANKTON        CLOUDY    59  55  88 SE16      30.06F
$$

MNZ071-072-080-081-089-090-097-098-232000-
SOUTHWEST MINNESOTA

CITY           SKY/WX    TMP DP  RH WIND       PRES   REMARKS
FAIRMONT       PTSUNNY   72  48  43 S18G24    30.16F
JACKSON        CLOUDY    68  50  52 S15G21    30.17F
LUVERNE        LGT RAIN  63  55  77 S15       30.12F
MARSHALL       CLOUDY    61  54  77 S14       30.12F
MONTEVIDEO     DRIZZLE   63  52  67 SW5       30.14F
PIPESTONE      CLOUDY    61  55  82 SE14      30.10F
REDWOOD FALLS  CLOUDY    69  53  56 S17G23    30.13F
TRACY          CLOUDY    63  58  84 SE8       30.14S
WINDOM         CLOUDY    66  52  59 S12G18    30.15F
WORTHINGTON    CLOUDY    63  54  72 S13G20    30.16F
$$

IAZ001>003-012>014-020>022-031-032-NEZ013-014-SDZ071-232000-
NORTHWEST IOWA

CITY           SKY/WX    TMP DP  RH WIND       PRES   REMARKS
CHEROKEE       LGT RAIN  60  59  96 S12       30.17S
DENISON        LGT RAIN  59  57  94 SE5       30.16F
ESTHERVILLE    CLOUDY    67  51  56 S20       30.17F
LE MARS        CLOUDY    61  57  88 SE9G17    30.12F
ORANGE CITY    LGT RAIN  61  54  77 SE12G17   30.13F
SHELDON        CLOUDY    59  57  94 S13G18    30.14S FOG
SIOUX CITY     CLOUDY    61  58  90 SE13      30.12F
SPENCER        LGT RAIN  65  54  67 S16G25    30.17S
$$

ABBREVIATIONS USED IN REMARKS
   TC - TEMPERATURE IN CELSIUS
  WCI - WIND CHILL INDEX
   HX - HEAT INDEX
  VSB - VISIBILITY




USA.gov is the U.S. government's official web portal to all federal, state and local government web resources and services.